Regional Weather Roundup
Issued by NWS

Home | Current Version | Previous Version | Graphics & Text | Print | Product List | Glossary On
Versions: 1 2 3 4 5 6 7 8 9 10 11 12 13 14 15 16 17 18 19 20 21 22 23 24 25 26 27 28 29 30 31 32 33 34 35 36 37 38 39 40 41 42 43 44 45 46 47 48 49 50
000
ASUS43 KLOT 211958
RWRIL

ILLINOIS REGIONAL WEATHER ROUNDUP
NATIONAL WEATHER SERVICE CHICAGO/ROMEOVILLE IL
300 PM CDT THU AUG 21 2014

NOTE: "FAIR" INDICATES FEW OR NO CLOUDS BELOW 12,000 FEET WITH NO
SIGNIFICANT WEATHER AND/OR OBSTRUCTIONS TO VISIBILITY.

* THESE STATIONS ARE NOT UNDER NWS QUALITY CONTROL. THEY ALSO MAY NOT
  REPORT WEATHER SUCH AS PRECIPITATION OR FOG.

ILZ001-002-007-009-015-016-024-212100-
NORTHWEST ILLINOIS

CITY           SKY/WX    TMP DP  RH WIND       PRES   REMARKS
MOLINE         CLOUDY    83  69  62 CALM      29.91F HX  86
$$

ILZ003-004-008-010-011-017-018-212100-
NORTH CENTRAL ILLINOIS

CITY           SKY/WX    TMP DP  RH WIND       PRES   REMARKS
ROCKFORD       NOT AVBL
$$

ILZ005-006-012>014-019>023-212100-
NORTHEAST ILLINOIS

CITY           SKY/WX    TMP DP  RH WIND       PRES   REMARKS
CHICAGO-OHARE  CLOUDY    78  69  73 CALM      29.95F HX  80
CHICAGO-MIDWAY CLOUDY    82  74  76 SE9       29.94F HX  88
AURORA         CLOUDY    81  72  74 SW7       29.96R HX  85
WAUKEGAN       LGT RAIN  73  70  90 E6        29.95S
DUPAGE AIRPORT CLOUDY    80  72  76 S7        29.95F HX  84
WHEELING       CLOUDY    77  72  84 SE3       29.97S THUNDER
NORTHERLY ISL    N/A     75  71  87 E6          N/A
$$

LMZ740>746-212100-
SOUTHERN LAKE MICHIGAN

STATION/POSITION SKY/WX   TEMP    WIND        PRES    VSBY  WAVE
                          AIR SEA DIR/SP/G                  HT/PER
                          (F)     (DEG/KT/KT) (MB)    (MI)  (FT/S)
SOUTHERN BUOY              69 68  310/  4/  4 1015.9R         0
WAUKEGAN HARBOR            73      50/  6/  7   N/A
HARRISON CRIB              74     130/  7/  9   N/A
BURNHAM HARBOR             76     110/  6/  6   N/A
CALUMET HARBOR             78      70/  4/  5 1013.4F
BURNS HARBOR               77     170/  1/  4   N/A
MICHIGAN CITY              76     170/  5/  7   N/A
MICHIGAN CITY 6N           74 71   80/  2/  4   N/A           0
ST. JOSEPH                 72 71   CALM  /  2   N/A           1/ 3
$$

ILZ025>027-034>036-040-047-049-050-058-095>099-212100-
WEST-CENTRAL ILLINOIS

CITY           SKY/WX    TMP DP  RH WIND       PRES   REMARKS
$$

ILZ028>032-037-038-041>044-048-051>054-059>061-212100-
CENTRAL ILLINOIS

CITY           SKY/WX    TMP DP  RH WIND       PRES   REMARKS
PEORIA         NOT AVBL
SPRINGFIELD    PTSUNNY   87  75  67 SW8       29.95F HX  96
TAYLORVILLE    NOT AVBL
$$

ILZ033-039-045-046-055>057-062-063-212100-
EAST-CENTRAL ILLINOIS

CITY           SKY/WX    TMP DP  RH WIND       PRES   REMARKS
MATTOON        CLOUDY    86  75  69 S10       29.98F HX  95
$$

ILZ079-100>102-212100-
SOUTHWEST ILLINOIS

CITY           SKY/WX    TMP DP  RH WIND       PRES   REMARKS
ALTON          PTSUNNY   90  81  74 S9        29.96F HX 108
$$

ILZ064>066-069>071-074>076-080>082-084>086-088>090-092>094-212100-
SOUTH-CENTRAL ILLINOIS

CITY           SKY/WX    TMP DP  RH WIND       PRES   REMARKS
CARBONDALE     PTSUNNY   89  74  60 S14G21    30.00F HX  98
MARION         PTSUNNY   90  75  62 S12       30.01F HX 100
$$

ILZ067-068-072-073-078-083-087-091-212100-
SOUTHEAST ILLINOIS

CITY           SKY/WX    TMP DP  RH WIND       PRES   REMARKS
$$

ABBREVIATIONS USED IN REMARKS
   TC - TEMPERATURE IN CELSIUS
  WCI - WIND CHILL INDEX
   HX - HEAT INDEX
  VSB - VISIBILITY
$$



USA.gov is the U.S. government's official web portal to all federal, state and local government web resources and services.